Overview Statistics Trail Chart Weather Telemetry Raw packets
 

This is the latest recevied weather packets stored in our database for station/object 4S6DRJ-13. If no packets are shown the sender has not sent any weather packets the latest 10 day(s).

<< 369 370 371 372 373 374 375 >>
Time Temp. Humidity Pressure Rain* Wind** Luminosity Snow
1787909346 31.11° C 73% 1007.8 hPa 0 mm 1.34 m/s, 86° 921 W/m² -
1787909285 30.56° C 75% 1007.8 hPa 0 mm 1.79 m/s, 86° 930 W/m² -
1787909224 30.56° C 76% 1007.7 hPa 0 mm 1.34 m/s, 228° 983 W/m² -
1787909164 30.56° C 76% 1007.8 hPa 0 mm 1.34 m/s, 148° 1103 W/m² -
1787909102 30.56° C 76% 1007.7 hPa 0 mm 0.89 m/s, 230° 580 W/m² -
1787909041 30° C 76% 1007.6 hPa 0 mm 2.24 m/s, 113° 379 W/m² -
1787908980 30° C 78% 1007.5 hPa 0 mm 2.24 m/s, 294° 944 W/m² -
1787908919 30° C 78% 1008 hPa 0 mm 0 m/s 959 W/m² -
1787908858 30° C 77% 1008.1 hPa 0 mm 2.24 m/s, 322° 1101 W/m² -
1787908797 30° C 77% 1008 hPa 0 mm 2.24 m/s, 195° 289 W/m² -
1787908736 30° C 77% 1008.2 hPa 0 mm 1.79 m/s, 191° 274 W/m² -
1787908675 30° C 78% 1007.9 hPa 0 mm 1.79 m/s, 220° 287 W/m² -
1787908614 30° C 78% 1008 hPa 0 mm 0.45 m/s, 285° 268 W/m² -
1787908553 30° C 78% 1008.1 hPa 0 mm 0.89 m/s, 231° 248 W/m² -
1787908492 30° C 78% 1008 hPa 0 mm 1.34 m/s, 208° 250 W/m² -
1787908431 30° C 77% 1008 hPa 0 mm 2.24 m/s, 195° 227 W/m² -
1787908370 30° C 77% 1008.1 hPa 0 mm 0.45 m/s, 240° 252 W/m² -
1787908309 30° C 77% 1008.1 hPa 0 mm 1.34 m/s, 316° 281 W/m² -
1787908248 30° C 77% 1008.3 hPa 0 mm 2.24 m/s, 229° 286 W/m² -
1787908187 30° C 77% 1008.1 hPa 0 mm 3.13 m/s, 197° 321 W/m² -
1787908127 30° C 77% 1008.2 hPa 0 mm 1.34 m/s, 20° 452 W/m² -
1787908065 30° C 78% 1008.2 hPa 0 mm 1.79 m/s, 95° 382 W/m² -
1787908004 30° C 77% 1008.2 hPa 0 mm 2.68 m/s, 229° 350 W/m² -
1787907943 30° C 77% 1008.3 hPa 0 mm 2.24 m/s, 250° 306 W/m² -
1787907882 30° C 77% 1008.3 hPa 0 mm 1.79 m/s, 279° 304 W/m² -

* Rain latest hour (hover to see other rain measurements)
** Current wind speed in m/s (hover to see current wind gust speed)